Tracking 22441 objects as of 1-Mar-2021
HD Live streaming from Space Station
objects crossing your sky now

ARIANE 5 DEB

Track ARIANE 5 DEB now!


NORAD ID: 43383
Int'l Code: 2008-030F
Perigee: 771.4 km
Apogee: 34,713.9 km
Inclination: 2.4 °
Period: 621.1 minutes
Semi major axis: 24113 km
RCS: Unknown
Launch date: June 12, 2008
Source: France (FR)
Launch site: FRENCH GUIANA (FRGUI)

Note: This is SATELLITE DEBRIS
aabbcc
Your satellite tracking list
Your tracking list is empty




NASA's NSSDC Master Catalog

Two Line Element Set (TLE):
1 43383U 08030F   21059.38494477 -.00001361  00000-0 -43558-1 0  9994
2 43383   2.4234  80.8024 7038044 126.5985 320.7690  2.31850863101805
Source of the keplerian elements: AFSPC